Fountain, MN

3:35 PM CDT on September 25, 2016 (GMT -0500)
Preston

Weather History for KFKA - October, 2013

Change the Weather History Date:

Friday, October 4, 2013

  Actual Average (KRST) Record (KRST)
Temperature  
Mean Temperature 62 °F 53 °F  
Max Temperature 65 °F 64 °F 84 °F (2005)
Min Temperature 58 °F 42 °F 20 °F (1935)
Degree Days  
Heating Degree Days 4 12  
Month to date heating degree days 47  
Since 1 July heating degree days 262  
Cooling Degree Days 0 1  
Month to date cooling degree days 4  
Year to date cooling degree days 583  
Growing Degree Days 12 (Base 50)    
Moisture  
Dew Point 61 °F    
Average Humidity 97    
Maximum Humidity 100    
Minimum Humidity 89    
Precipitation  
Precipitation 1.20 in 0.09 in 1.53 in (2002)
Month to date precipitation 0.39  
Year to date precipitation 28.03  
Snow  
Snow 0.00 in 0.00 in T in (2014)
Month to date snowfall 0.0  
Since 1 July snowfall 0.0  
Snow Depth -    
Sea Level Pressure  
Sea Level Pressure 29.90 in    
Wind  
Wind Speed 7 mph (NE)    
Max Wind Speed 18 mph    
Max Gust Speed 28 mph    
Visibility 4 miles    
Events Fog , Rain , Thunderstorm    
T = Trace of Precipitation, MM = Missing Value Source: NWS Daily Summary

Daily Weather History Graph

Daily Weather History Graph

Search for Another Location

Airport or City:

Trip Planner

Search our weather history database for the weather conditions in past years. The results will help you decide how hot, cold, wet, or windy it might be!

Date:

Astronomy

Oct. 04, 2013 Rise Set
Actual Time 7:10 AM CDT 6:43 PM CDT
Civil Twilight 6:41 AM CDT 7:12 PM CDT
Nautical Twilight 6:08 AM CDT 7:45 PM CDT
Astronomical Twilight 5:34 AM CDT 8:19 PM CDT
Moon 6:46 AM CDT (10/4) 6:25 PM CDT (10/4)
Length of Visible Light 12h 31m
Length of Day
11h 33m
Waning Crescent, 0% of the Moon is Illuminated
Oct 4
Waning Crescent
Oct 4
New
Oct 11
First Quarter
Oct 18
Full
Oct 26
Last Quarter

Hourly Weather History & Observations

Time (CDT) Temp. Dew Point Humidity Pressure Visibility Wind Dir Wind Speed Gust Speed Precip Events Conditions
12:16 AM 61.7 °F 61.2 °F 98% 29.88 in 0.5 mi NE 4.6 mph - N/A Fog Fog
12:37 AM 61.5 °F 61.0 °F 98% 29.88 in 0.5 mi NE 3.5 mph - N/A Fog Fog
12:56 AM 61.5 °F 61.0 °F 98% 29.88 in 0.5 mi NNE 3.5 mph - N/A Fog Fog
1:17 AM 61.3 °F 61.0 °F 99% 29.89 in 0.2 mi North 3.5 mph - N/A Fog Fog
1:36 AM 61.2 °F 60.8 °F 99% 29.88 in 0.2 mi North 4.6 mph - N/A Fog Fog
1:56 AM 61.0 °F 60.8 °F 99% 29.89 in 0.2 mi North 5.8 mph - N/A Fog Fog
2:16 AM 61.0 °F 60.8 °F 99% 29.90 in 0.2 mi North 5.8 mph - N/A Fog Fog
2:37 AM 61.0 °F 60.6 °F 99% 29.89 in 0.2 mi North 3.5 mph - N/A Fog Fog
2:56 AM 60.8 °F 60.4 °F 99% 29.90 in 0.2 mi North 5.8 mph - N/A Fog Fog
3:16 AM 60.8 °F 60.3 °F 98% 29.90 in 0.5 mi North 6.9 mph - N/A Fog Fog
3:36 AM 59.9 °F 59.5 °F 99% 29.91 in 0.5 mi North 5.8 mph - N/A Fog Fog
3:57 AM 59.5 °F 59.2 °F 99% 29.90 in 0.5 mi North 6.9 mph - N/A Fog Fog
4:16 AM 59.5 °F 59.2 °F 99% 29.91 in 0.5 mi NNE 5.8 mph - N/A Fog Fog
4:36 AM 59.7 °F 59.4 °F 99% 29.91 in 0.5 mi NNE 4.6 mph - N/A Fog Fog
4:56 AM 59.9 °F 59.5 °F 99% 29.91 in 0.2 mi NNE 5.8 mph - N/A Fog Fog
5:17 AM 60.1 °F 59.9 °F 99% 29.91 in 0.2 mi NE 4.6 mph - N/A Fog Fog
5:37 AM 60.1 °F 59.9 °F 99% 29.92 in 0.2 mi Calm Calm - N/A Fog Fog
5:57 AM 60.3 °F 60.1 °F 99% 29.92 in 0.5 mi North 3.5 mph - N/A Rain Light Rain
6:16 AM 60.4 °F 60.3 °F 99% 29.93 in 0.5 mi Calm Calm - N/A Fog Fog
6:36 AM 60.4 °F 60.3 °F 99% 29.92 in 0.2 mi NNE 6.9 mph - 0.01 in Fog Fog
6:56 AM 60.4 °F 60.3 °F 99% 29.91 in 0.2 mi NE 9.2 mph - 0.01 in Fog Fog
7:17 AM 60.6 °F 60.3 °F 99% 29.90 in 0.2 mi NNE 9.2 mph - N/A Fog Fog
7:37 AM 60.6 °F 60.3 °F 99% 29.91 in 0.2 mi NE 8.1 mph - N/A Fog Fog
7:55 AM 60.3 °F 60.1 °F 99% 29.91 in 0.2 mi NE 10.4 mph - N/A Fog Fog
8:16 AM 59.9 °F 59.7 °F 99% 29.90 in 0.2 mi NNE 9.2 mph - N/A Fog Fog
8:37 AM 58.6 °F 58.5 °F 99% 29.91 in 1.2 mi NE 12.7 mph 18.4 mph N/A   Overcast
8:57 AM 58.1 °F 58.1 °F 100% 29.94 in 5.0 mi NE 5.8 mph - N/A   Overcast
9:16 AM 58.1 °F 58.1 °F 100% 29.93 in 5.0 mi ENE 6.9 mph - N/A   Overcast
9:37 AM 58.3 °F 58.1 °F 99% 29.92 in 3.0 mi ENE 8.1 mph - N/A   Overcast
9:57 AM 58.1 °F 58.1 °F 100% 29.92 in 1.2 mi ENE 8.1 mph - N/A   Overcast
10:17 AM 58.3 °F 58.1 °F 99% 29.91 in 0.5 mi East 10.4 mph - N/A Fog Fog
10:36 AM 58.5 °F 58.3 °F 99% 29.92 in 0.5 mi NNE 8.1 mph - N/A Fog Fog
10:57 AM 59.0 °F 58.6 °F 99% 29.96 in 0.8 mi ESE 4.6 mph - N/A   Overcast
11:17 AM 59.2 °F 59.0 °F 99% 29.96 in 1.0 mi NE 4.6 mph - N/A   Overcast
11:36 AM 59.2 °F 59.0 °F 99% 29.95 in 1.8 mi ENE 5.8 mph - N/A   Overcast
11:57 AM 59.4 °F 59.2 °F 99% 29.95 in 2.5 mi ENE 3.5 mph - N/A   Overcast
12:16 PM 60.1 °F 59.9 °F 99% 29.96 in 4.0 mi East 6.9 mph - N/A   Overcast
12:37 PM 60.4 °F 60.3 °F 99% 29.95 in 4.0 mi ENE 6.9 mph - N/A   Overcast
12:57 PM 60.8 °F 60.4 °F 99% 29.94 in 4.0 mi East 8.1 mph - N/A   Overcast
1:16 PM 61.3 °F 61.2 °F 99% 29.93 in 4.0 mi ENE 6.9 mph - N/A   Overcast
1:37 PM 62.8 °F 61.7 °F 96% 29.93 in 5.0 mi ENE 8.1 mph - N/A   Overcast
1:56 PM 63.5 °F 61.5 °F 93% 29.92 in 5.0 mi East 9.2 mph - N/A   Overcast
2:17 PM 64.0 °F 61.7 °F 92% 29.91 in 7.0 mi East 9.2 mph - N/A   Overcast
2:37 PM 64.6 °F 62.1 °F 92% 29.91 in 7.0 mi East 6.9 mph - N/A   Overcast
2:56 PM 65.5 °F 62.2 °F 89% 29.91 in 7.0 mi ENE 9.2 mph - N/A   Overcast
3:17 PM 64.9 °F 62.4 °F 92% 29.89 in 7.0 mi ENE 9.2 mph - N/A   Overcast
3:37 PM 65.3 °F 62.2 °F 90% 29.89 in 7.0 mi ENE 8.1 mph - N/A   Overcast
3:56 PM 65.1 °F 62.2 °F 90% 29.90 in 10.0 mi NE 8.1 mph - N/A   Overcast
4:16 PM 64.9 °F 62.6 °F 92% 29.92 in 10.0 mi ENE 4.6 mph - N/A   Overcast
4:37 PM 64.8 °F 62.4 °F 92% 29.90 in 10.0 mi ENE 8.1 mph - N/A   Overcast
4:57 PM 64.6 °F 62.4 °F 93% 29.89 in 10.0 mi ENE 11.5 mph - N/A   Overcast
5:17 PM 64.0 °F 62.1 °F 93% 29.88 in 10.0 mi ENE 12.7 mph 18.4 mph N/A   Overcast
5:36 PM 63.9 °F 62.1 °F 94% 29.88 in 10.0 mi East 12.7 mph 19.6 mph N/A   Overcast
5:57 PM 63.7 °F 62.1 °F 94% 29.87 in 7.0 mi East 13.8 mph - N/A   Overcast
6:16 PM 63.1 °F 61.7 °F 95% 29.89 in 7.0 mi East 11.5 mph 18.4 mph N/A   Overcast
6:37 PM 63.0 °F 61.9 °F 96% 29.88 in 4.0 mi East 10.4 mph - N/A Rain Light Rain
6:56 PM 62.6 °F 61.7 °F 97% 29.89 in 5.0 mi ESE 9.2 mph - N/A Thunderstorm Overcast
7:16 PM 62.6 °F 61.9 °F 97% 29.90 in 5.0 mi East 6.9 mph - 0.01 in Rain Light Rain
7:36 PM 62.6 °F 61.9 °F 97% 29.89 in 4.0 mi East 10.4 mph - 0.05 in Rain , Thunderstorm Rain
7:56 PM 62.4 °F 61.9 °F 98% 29.86 in 3.0 mi East 12.7 mph 20.7 mph 0.06 in Thunderstorm Overcast
8:16 PM 62.2 °F 61.7 °F 98% 29.88 in 3.0 mi ENE 9.2 mph 16.1 mph N/A Rain , Thunderstorm Light Thunderstorms and Rain
8:25 PM 62.2 °F 61.7 °F 98% 29.88 in 2.5 mi East 10.4 mph 17.3 mph 0.03 in Rain , Thunderstorm Heavy Thunderstorms and Rain
8:56 PM 62.4 °F 61.7 °F 97% 29.91 in 3.0 mi SSE 10.4 mph - 0.56 in Rain , Thunderstorm Thunderstorms and Rain
9:16 PM 62.8 °F 61.9 °F 97% 29.87 in 3.0 mi NE 10.4 mph 17.3 mph 0.29 in Rain , Thunderstorm Light Thunderstorms and Rain
9:36 PM 63.0 °F 62.6 °F 99% 29.86 in 4.0 mi NNW 5.8 mph - 0.33 in Rain , Thunderstorm Thunderstorms and Rain
9:57 PM 63.1 °F 62.6 °F 98% 29.88 in 7.0 mi SE 11.5 mph - 0.34 in Rain , Thunderstorm Light Thunderstorms and Rain
10:17 PM 63.0 °F 62.6 °F 99% 29.86 in 10.0 mi ESE 11.5 mph - 0.01 in Thunderstorm Thunderstorm
10:36 PM 62.6 °F 61.9 °F 97% 29.85 in 10.0 mi ENE 10.4 mph - 0.01 in Thunderstorm Thunderstorm
10:56 PM 61.9 °F 61.2 °F 97% 29.85 in 10.0 mi ESE 9.2 mph 17.3 mph 0.01 in Thunderstorm Mostly Cloudy
11:16 PM 61.7 °F 61.0 °F 97% 29.82 in 7.0 mi East 13.8 mph 20.7 mph 0.02 in Rain , Thunderstorm Thunderstorms and Rain
11:36 PM 61.2 °F 60.1 °F 96% 29.79 in 3.0 mi East 18.4 mph 27.6 mph 0.07 in Thunderstorm Overcast
11:56 PM 60.8 °F 59.7 °F 96% 29.81 in 2.0 mi NNW 16.1 mph 21.9 mph 0.22 in Rain , Thunderstorm Rain